SCP
0 0 0 0 0 0 0 0 0 0 0 0 0 0 0 0 0 0 0 0 0 0 0 0 0 0 0 0 0 0 0 0 0 0 0 0 0 0 0 0 0 0 0
0 0 0 0 0 0 0 0 0 0 0 0 0 0 0 0 0 0 0 0 0 0 0 0 0 0 0 0 0 0 0 0 0 0 0 0 0 0 0 0 0 0 0
0 0 0 0 0 0 0 0 0 0 0 0 0 0 0 0 0 0 0 0 0 0 0 0 0 0 0 0 0 0 0 0 0 0 0 0 0 0 0 0 0 0 0
0 0 0 0 0 0 0 0 0 0 0 0 0 0 0 0 0 0 0 0 0 0 0 0 0 0 0 0 0 0 0 0 0 0 0 0 0 0 0 0 0 0 0
0 0 0 0 0 0 0 0 0 0 0 0 0 0 0 0 0 0 0 0 0 0 0 0 0 0 0 0 0 0 0 0 0 0 0 0 0 0 0 0 0 0 0
0 0 0 0 0 0 0 0 0 0 0 0 0 0 0 0 0 0 0 0 0 0 0 0 0 0 0 0 0 0 0 0 0 0 0 0 0 0 0 0 0 0 0
0 0 0 0 0 0 0 0 0 0 0 0 0 0 0 0 0 0 0 0 0 0 0 0 0 0 0 0 0 0 0 0 0 0 0 0 0 0 0 0 0 0 0
0 0 0 0 0 0 0 0 0 0 0 0 0 0 0 0 0 0 0 0 0 0 0 0 0 0 0 0 0 0 0 0 0 0 0 0 0 0 0 0 0 0 0
0 0 0 0 0 0 0 0 0 0 0 0 0 0 0 0 0 0 0 0 0 0 0 0 0 0 0 0 0 0 0 0 0 0 0 0 0 0 0 0 0 0 0
0 0 0 0 0 0 0 0 0 0 0 0 0 0 0 0 0 0 0 0 0 0 0 0 0 0 0 0 0 0 0 0 0 0 0 0 0 0 0 0 0 0 0
0 0 0 0 0 0 0 0 0 0 0 0 0 0 0 0 0 0 0 0 0 0 0 0 0 0 0 0 0 0 0 0 0 0 0 0 0 0 0 0 0 0 0
0 0 0 0 0 0 0 0 0 0 0 0 0 0 0 0 0 0 0 0 0 0 0 0 0 0 0 0 0 0 0 0 0 0 0 0 0 0 0 0 0 0 0
0 0 0 0 0 0 0 0 0 0 0 0 0 0 0 0 0 0 0 0 0 0 0 0 0 0 0 0 0 0 0 0 0 0 0 0 0 0 0 0 0 0 0
0 0 0 0 0 0 0 0 0 0 0 0 0 0 0 0 0 0 0 0 0 0 0 0 0 0 0 0 0 0 0 0 0 0 0 0 0 0 0 0 0 0 0
0 0 0 0 0 0 0 0 0 0 0 0 0 0 0 0 0 0 0 0 0 0 0 0 0 0 0 0 0 0 0 0 0 0 0 0 0 0 0 0 0 0 0
0 0 0 0 0 0 0 0 0 0 0 0 0 0 0 0 0 0 0 0 0 0 0 0 0 0 0 0 0 0 0 0 0 0 0 0 0 0 0 0 0 0 0
0 0 0 0 0 0 0 0 0 0 0 0 0 0 0 0 0 0 0 0 0 0 0 0 0 0 0 0 0 0 0 0 0 0 0 0 0 0 0 0 0 0 0
0 0 0 0 0 0 0 0 0 0 0 0 0 0 0 0 0 0 0 0 0 0 0 0 0 0 0 0 0 0 0 0 0 0 0 0 0 0 0 0 0 0 0
0 0 0 0 0 0 0 0 0 0 0 0 0 0 0 0 0 0 0 0 0 0 0 0 0 0 0 0 0 0 0 0 0 0 0 0 0 0 0 0 0 0 0
0 0 0 0 0 0 0 0 0 0 0 0 0 0 0 0 0 0 0 0 0 0 0 0 0 0 0 0 0 0 0 0 0 0 0 0 0 0 0 0 0 0 0
0 0 0 0 0 0 0 0 0 0 0 0 0 0 0 0 0 0 0 0 0 0 0 0 0 0 0 0 0 0 0 0 0 0 0 0 0 0 0 0 0 0 0
0 0 0 0 0 0 0 0 0 0 0 0 0 0 0 0 0 0 0 0 0 0 0 0 0 0 0 0 0 0 0 0 0 0 0 0 0 0 0 0 0 0 0
0 0 0 0 0 0 0 0 0 0 0 0 0 0 0 0 0 0 0 0 0 0 0 0 0 0 0 0 0 0 0 0 0 0 0 0 0 0 0 0 0 0 0
0 0 0 0 0 0 0 0 0 0 0 0 0 0 0 0 0 0 0 0 0 0 0 0 0 0 0 0 0 0 0 0 0 0 0 0 0 0 0 0 0 0 0
0 0 0 0 0 0 0 0 0 0 0 0 0 0 0 0 0 0 0 0 0 0 0 0 0 0 0 0 0 0 0 0 0 0 0 0 0 0 0 0 0 0 0
0 0 0 0 0 0 0 0 0 0 0 0 0 0 0 0 0 0 0 0 0 0 0 0 0 0 0 0 0 0 0 0 0 0 0 0 0 0 0 0 0 0 0
Wind_Speed
1 1 1 2 2 2 2 2 3 3 3 4 4 4 4 4 4 4 3 8 9 8 8 7 7 7 7 7 6 7 7 7 7 6 6 6 6 5 5 5 5 6 6
2 2 2 2 2 2 2 2 3 3 2 3 4 4 3 3 4 4 4 5 9 9 9 8 8 8 8 7 7 8 7 7 7 6 6 6 5 5 5 5 5 5 5
2 2 2 2 1 2 2 3 3 3 3 3 4 3 3 3 4 4 4 4 5 8 9 9 8 8 8 8 8 8 8 7 7 6 6 6 6 5 5 5 5 5 5
2 2 2 1 1 2 2 2 2 3 3 3 3 3 3 3 4 4 4 4 4 4 7 10 9 9 9 8 8 7 7 7 7 7 6 6 6 5 5 5 5 5 5
2 2 2 1 2 2 2 2 2 2 2 3 3 3 3 3 3 4 5 5 4 4 4 7 10 10 9 8 8 7 7 7 7 7 7 6 6 5 5 5 5 4 4
3 3 2 2 2 2 2 2 3 2 2 2 4 4 4 3 3 4 4 4 4 5 5 5 5 6 10 9 8 7 6 6 6 6 6 6 5 4 4 4 4 4 4
3 3 2 2 2 2 2 3 3 3 2 2 3 3 3 4 4 3 3 3 4 4 4 4 4 3 4 8 8 7 6 6 5 5 5 6 5 5 5 5 5 5 5
2 2 3 2 2 2 3 3 3 2 1 1 2 2 2 3 3 4 3 3 3 3 4 4 4 4 3 3 6 8 7 5 5 5 5 6 7 7 5 5 5 5 5
2 2 3 3 2 3 3 2 3 3 2 0 1 3 2 1 1 2 3 2 3 3 2 2 3 3 3 2 3 5 7 5 5 4 5 6 6 6 6 6 5 5 5
1 2 3 3 2 2 3 2 2 2 3 1 0 1 1 3 2 0 2 2 2 2 2 2 3 3 3 2 3 5 6 5 5 4 5 5 5 6 6 7 6 5 5
1 2 2 2 2 2 2 2 2 2 2 2 2 1 1 1 2 2 1 2 2 2 2 2 2 2 2 2 2 3 5 5 5 5 4 4 5 5 5 5 5 5 5
1 1 1 2 2 1 2 2 2 2 2 2 1 2 2 2 2 2 2 1 1 2 2 2 1 2 2 2 3 4 4 5 5 4 4 4 4 4 4 4 4 4 4
0 1 1 1 1 1 1 2 1 1 1 2 2 1 1 1 2 2 2 1 1 1 2 2 1 1 1 2 2 4 3 4 4 4 4 4 4 3 3 3 3 3 2
1 1 1 1 1 1 1 2 1 1 1 1 1 1 1 1 2 2 3 3 1 1 1 2 2 1 1 2 2 3 2 3 3 3 3 3 4 4 4 4 4 4 3
1 1 1 1 1 1 1 1 1 1 1 1 1 1 1 1 1 1 2 3 3 1 2 2 1 2 2 1 2 2 2 2 3 3 3 3 3 3 4 4 4 4 3
1 2 2 1 1 1 1 1 1 1 1 1 1 1 1 1 1 1 1 1 1 2 1 1 1 2 2 2 2 2 2 3 3 2 2 2 2 2 3 3 4 4 3
2 2 2 2 2 2 1 1 1 1 1 1 1 1 1 1 1 1 1 1 1 2 2 1 1 1 1 2 2 2 2 2 2 3 3 2 2 2 2 2 3 4 4
2 2 2 2 2 2 2 2 2 1 2 2 1 1 1 1 1 1 1 1 1 1 2 2 1 1 1 1 1 2 2 2 2 3 3 3 2 1 1 1 2 2 3
2 2 2 2 2 2 2 2 2 2 2 2 2 2 2 2 1 1 1 1 1 1 1 2 1 0 0 1 2 2 2 2 2 3 3 3 2 2 1 1 0 0 1
2 2 2 3 3 3 3 3 2 2 2 1 2 2 2 3 3 2 2 2 1 1 2 1 1 0 0 1 1 1 2 2 3 3 3 2 3 3 3 2 2 1 1
2 2 2 2 2 3 3 3 3 2 2 2 1 2 2 3 4 3 2 2 2 2 2 1 1 0 1 0 1 1 1 2 2 2 2 2 2 2 2 3 3 3 2
1 1 1 2 3 3 3 5 4 3 2 2 2 2 2 2 3 4 3 3 4 4 3 2 2 2 3 2 1 1 1 1 2 1 0 2 1 2 2 2 3 3 3
1 1 1 1 2 3 5 5 5 3 3 3 3 2 2 2 2 2 3 3 3 4 5 4 4 4 4 4 3 2 2 2 3 2 1 2 1 3 3 3 4 4 4
2 2 2 2 2 3 4 4 4 3 3 3 3 4 3 3 3 3 2 2 2 2 4 3 4 4 3 3 4 4 3 2 1 1 1 2 2 2 3 3 4 4 3
2 2 2 2 2 3 3 3 3 3 2 3 3 3 3 4 4 4 3 2 2 2 2 3 3 3 3 4 3 2 2 1 1 2 1 2 2 2 2 2 3 4 4
2 2 2 2 3 4 4 4 3 2 2 2 2 3 5 5 5 5 4 4 4 3 2 1 2 2 2 3 4 3 3 2 1 2 2 2 1 1 2 2 1 2 3
Wind_Direction
89 73 69 67 61 69 70 68 69 61 52 50 51 54 47 42 38 31 25 42 50 59 70 76 78 77 75 77 80 74 75 76 72 65 64 61 58 56 55 55 55 51 53
123 105 87 73 64 70 76 80 80 72 59 57 50 49 50 47 44 40 33 33 46 53 60 67 72 73 72 70 70 68 66 70 71 65 61 61 58 55 57 59 58 54 54
119 112 98 86 75 76 80 80 72 68 65 58 49 45 48 48 46 42 37 29 27 39 48 55 62 67 66 68 69 66 66 66 67 61 57 57 57 54 56 59 60 60 61
112 109 107 102 93 85 84 88 79 73 61 56 48 37 40 44 45 46 45 37 32 31 36 45 52 57 58 61 63 66 65 62 62 58 54 51 54 58 59 62 62 62 64
115 123 121 114 107 99 90 98 82 89 84 70 66 50 42 42 37 46 47 43 40 38 33 35 42 44 46 50 54 56 60 60 60 56 50 47 47 57 61 60 60 65 70
121 121 117 112 113 107 90 94 94 76 84 84 77 60 45 41 40 41 42 42 40 41 39 36 30 27 32 37 39 44 48 52 55 51 46 41 39 50 62 63 63 69 72
118 119 121 113 110 118 126 119 108 93 81 87 80 56 36 40 43 36 37 42 36 34 39 37 33 27 18 25 24 30 38 45 49 48 42 40 47 55 61 64 68 68 70
123 135 129 128 124 119 111 114 118 115 109 79 102 91 35 11 17 25 30 42 31 28 36 35 32 30 20 17 14 21 24 28 37 44 48 52 57 62 59 64 69 68 69
127 133 135 131 134 136 142 145 145 141 152 147 93 129 134 194 325 353 17 31 28 25 13 19 30 21 16 12 359 12 19 20 32 43 51 58 61 60 58 60 64 64 68
101 120 131 131 134 136 144 160 147 150 146 160 64 66 135 153 150 343 344 3 21 21 2 9 8 6 5 358 9 17 20 21 27 31 44 54 64 62 60 57 54 53 61
77 106 127 130 138 147 155 156 147 142 149 158 157 139 98 85 115 145 238 318 350 345 338 346 351 352 354 349 350 15 21 24 28 28 36 45 57 59 55 56 53 50 54
45 68 117 126 138 150 165 173 170 161 158 157 156 158 159 161 167 155 181 228 292 312 332 334 342 339 343 344 351 16 21 30 34 37 36 35 42 49 49 52 51 52 56
179 212 140 139 146 168 171 161 163 174 167 160 172 183 178 177 157 148 149 174 244 300 323 332 325 329 340 345 338 5 16 29 31 39 40 37 38 38 36 36 44 46 47
200 173 152 151 154 155 157 150 156 181 159 171 171 161 162 174 156 154 157 153 152 321 319 296 318 319 332 332 338 352 351 28 30 36 44 46 46 43 43 42 38 36 42
172 148 147 144 136 137 144 143 159 181 144 156 165 159 149 151 148 153 147 155 154 183 264 266 289 321 321 321 342 351 332 10 23 35 47 52 49 45 46 46 43 40 49
161 148 147 146 132 131 139 134 153 167 135 145 156 139 126 125 135 137 147 151 153 161 215 247 251 292 314 326 359 356 339 357 11 28 36 44 46 51 54 50 48 52 64
175 172 168 165 164 162 157 153 165 142 143 142 148 150 166 142 138 142 149 150 149 144 189 266 276 313 319 336 345 350 354 353 351 9 9 10 29 48 61 58 57 59 60
199 193 177 175 179 173 166 168 176 162 167 176 196 175 191 161 151 159 161 171 179 173 173 214 263 306 298 322 340 348 349 355 347 352 348 346 350 17 44 45 48 64 74
201 195 183 187 192 183 175 179 176 177 182 190 191 190 199 165 176 184 170 163 176 155 154 170 227 277 345 358 7 353 352 350 338 342 339 337 339 342 341 334 327 183 131
199 202 200 201 198 186 178 177 175 179 186 193 199 205 201 184 194 191 184 176 149 127 123 135 167 255 358 3 46 350 338 344 330 334 342 339 335 330 319 301 275 228 203
199 204 191 198 199 190 186 177 176 178 186 196 210 219 219 210 205 193 187 176 158 148 145 154 190 213 231 223 234 230 267 309 315 318 333 335 333 325 314 296 274 243 219
196 168 189 200 207 218 203 185 171 179 188 198 215 234 246 235 221 214 210 191 176 173 178 178 199 213 235 230 216 215 219 297 289 295 311 306 328 299 290 279 272 247 231
190 199 214 208 220 231 220 202 188 177 190 202 208 210 237 250 225 201 208 202 206 204 194 186 196 217 218 212 195 207 214 220 243 257 217 279 292 283 281 282 272 253 238
200 214 224 222 228 243 235 219 197 189 199 215 215 208 209 228 217 181 171 182 215 230 220 209 210 220 214 201 197 199 200 201 262 277 194 239 267 271 288 282 275 254 244
217 220 225 224 228 249 249 236 203 189 202 225 227 217 211 217 222 186 168 187 230 264 253 229 227 229 216 198 176 137 150 154 262 265 208 213 249 273 281 276 269 261 252
231 231 244 237 232 240 247 242 209 188 202 225 231 225 224 222 216 195 185 187 211 235 225 243 263 272 247 214 197 192 185 184 208 245 211 196 225 243 291 282 280 273 258